Frankfort, KY

9:39 PM EST on February 11, 2016 (GMT -0500)
Capital City

Weather History for KFFT - March, 2012

Change the Weather History Date:

Thursday, March 22, 2012

  Actual Average Record
Temperature  
Mean Temperature 68 °F 47 °F  
Max Temperature 79 °F 58 °F 84 °F (1907)
Min Temperature 57 °F 36 °F 14 °F (2013)
Degree Days  
Heating Degree Days 0 18  
Month to date heating degree days 241 478  
Since 1 July heating degree days 3451 4117  
Cooling Degree Days 3 0  
Month to date cooling degree days 24 0  
Year to date cooling degree days 24 0  
Growing Degree Days 18 (Base 50)    
Moisture  
Dew Point 58 °F    
Average Humidity 72    
Maximum Humidity 93    
Minimum Humidity 50    
Precipitation  
Precipitation T in 0.14 in 2.21 in (1952)
Month to date precipitation 2.40 3.03  
Year to date precipitation 8.14 9.58  
Sea Level Pressure  
Sea Level Pressure 30.10 in    
Wind  
Wind Speed 5 mph (South)    
Max Wind Speed 17 mph    
Max Gust Speed 22 mph    
Visibility 10 miles    
Events      
T = Trace of Precipitation, MM = Missing Value Source: NWS Daily Summary

Daily Weather History Graph

Daily Weather History Graph

Search for Another Location

Airport or City:

Trip Planner

Search our weather history database for the weather conditions in past years. The results will help you decide how hot, cold, wet, or windy it might be!

Date:

Astronomy

Mar. 22, 2012 Rise Set
Actual Time 7:39 AM EDT 7:53 PM EDT
Civil Twilight 7:12 AM EDT 8:20 PM EDT
Nautical Twilight 6:42 AM EDT 8:51 PM EDT
Astronomical Twilight 6:10 AM EDT 9:22 PM EDT
Moon 7:18 AM EDT (3/22) 8:16 PM EDT (3/22)
Length of Visible Light 13h 07m
Length of Day
12h 14m
New Moon, 0% of the Moon is Illuminated
Mar 22
New Moon
Mar 30
First Quarter
Apr 6
Full
Apr 13
Last Quarter
Apr 21
New

Hourly Weather History & Observations

Time (EDT) Temp. Dew Point Humidity Pressure Visibility Wind Dir Wind Speed Gust Speed Precip Events Conditions
12:53 AM 63.0 °F 57.0 °F 81% 30.10 in 10.0 mi South 3.5 mph - N/A   Clear
1:53 AM 63.0 °F 55.9 °F 78% 30.10 in 10.0 mi Calm Calm - N/A   Clear
2:53 AM 60.1 °F 55.9 °F 86% 30.11 in 10.0 mi Calm Calm - N/A   Clear
3:53 AM 60.1 °F 55.9 °F 86% 30.11 in 10.0 mi Calm Calm - N/A   Clear
4:53 AM 59.0 °F 55.9 °F 90% 30.11 in 10.0 mi Calm Calm - N/A   Clear
5:53 AM 59.0 °F 55.0 °F 87% 30.11 in 10.0 mi Calm Calm - N/A   Clear
6:53 AM 59.0 °F 55.9 °F 90% 30.11 in 9.0 mi Calm Calm - N/A   Clear
7:53 AM 57.9 °F 55.0 °F 90% 30.12 in 9.0 mi Calm Calm - N/A   Clear
8:53 AM 63.0 °F 57.9 °F 84% 30.14 in 10.0 mi Calm Calm - N/A   Clear
9:53 AM 70.0 °F 57.0 °F 63% 30.15 in 10.0 mi South 10.4 mph - N/A   Clear
10:53 AM 73.0 °F 57.9 °F 59% 30.16 in 10.0 mi South 15.0 mph 19.6 mph N/A   Clear
11:53 AM 75.0 °F 59.0 °F 57% 30.16 in 10.0 mi SSE 9.2 mph - N/A   Clear
12:53 PM 77.0 °F 59.0 °F 54% 30.15 in 10.0 mi SSE 13.8 mph - N/A   Clear
1:53 PM 78.1 °F 59.0 °F 52% 30.13 in 10.0 mi South 9.2 mph 16.1 mph N/A   Clear
2:53 PM 78.1 °F 59.0 °F 52% 30.10 in 10.0 mi SSE 10.4 mph - N/A   Overcast
3:53 PM 78.1 °F 59.0 °F 52% 30.08 in 10.0 mi SSE 10.4 mph - N/A   Mostly Cloudy
4:53 PM 77.0 °F 57.9 °F 52% 30.06 in 10.0 mi South 3.5 mph - N/A   Partly Cloudy
5:53 PM 77.0 °F 57.9 °F 52% 30.06 in 10.0 mi South 5.8 mph - N/A   Mostly Cloudy
6:53 PM 73.0 °F 62.1 °F 68% 30.05 in 10.0 mi Calm Calm - 0.00 in   Scattered Clouds
7:53 PM 70.0 °F 60.1 °F 71% 30.05 in 10.0 mi ESE 3.5 mph - N/A   Clear
8:53 PM 71.1 °F 59.0 °F 66% 30.05 in 10.0 mi Calm Calm - N/A   Mostly Cloudy
9:53 PM 69.1 °F 57.9 °F 68% 30.05 in 10.0 mi ESE 5.8 mph - N/A   Mostly Cloudy
10:53 PM 66.0 °F 60.1 °F 81% 30.07 in 10.0 mi SW 6.9 mph - N/A   Clear
11:53 PM 66.0 °F 59.0 °F 78% 30.07 in 10.0 mi SW 3.5 mph - N/A   Clear